User: anonymous
Location: Minneapolis
(44.9800°N, 93.2640°W)
Time: 08:27:30
(UTC-05:00)
Language:

Iridium 96 - Orbit

View from above orbital plane
View from above orbital plane
View from above satellite
View from above satellite

Ground track
Ground track

The orbit data is extracted from the following two-line orbital elements,

1 27376U 02005E   14258.39026566  .00000395  00000-0  13383-3 0  6387
2 27376 086.4031 019.2735 0004410 152.9663 207.1763 14.34216302671957
Epoch (UTC): 15 September 2014 09:21:58
Eccentricity: 0.0004410
inclination: 86.4031°
perigee height: 774 km
apogee height: 781 km
right ascension of ascending node: 19.2735°
argument of perigee: 152.9663°
revolutions per day: 14.34216302
mean anomaly at epoch: 207.1763°
orbit number at epoch: 67195

The dashed part of the orbit path shows where the satellite is in the earth's shadow,  

DLR